Year,Month,Day,Hour,Minute,Value (Times are PST for temperature in C)
2012,09,26,00,00,10.70
2012,09,26,00,01,10.70
2012,09,26,00,02,10.60
2012,09,26,00,03,10.60
2012,09,26,00,04,10.60
2012,09,26,00,05,10.60
2012,09,26,00,06,10.60
2012,09,26,00,07,10.60
2012,09,26,00,08,10.60
2012,09,26,00,09,10.60
2012,09,26,00,10,10.60
2012,09,26,00,11,10.60
2012,09,26,00,12,10.50
2012,09,26,00,13,10.50
2012,09,26,00,14,10.50
2012,09,26,00,15,10.50
2012,09,26,00,16,10.50
2012,09,26,00,17,10.40
2012,09,26,00,18,10.40
2012,09,26,00,19,10.40
2012,09,26,00,20,10.40
2012,09,26,00,21,10.40
2012,09,26,00,22,10.30
2012,09,26,00,23,10.30
2012,09,26,00,24,10.30
2012,09,26,00,25,10.30
2012,09,26,00,26,10.30
2012,09,26,00,27,10.30
2012,09,26,00,28,10.30
2012,09,26,00,29,10.30
2012,09,26,00,30,10.30
2012,09,26,00,31,10.30
2012,09,26,00,32,10.30
2012,09,26,00,33,10.30
2012,09,26,00,34,10.30
2012,09,26,00,35,10.30
2012,09,26,00,36,10.30
2012,09,26,00,37,10.30
2012,09,26,00,38,10.30
2012,09,26,00,39,10.30
2012,09,26,00,40,10.30
2012,09,26,00,41,10.30
2012,09,26,00,42,10.30
2012,09,26,00,43,10.30
2012,09,26,00,44,10.30
2012,09,26,00,45,10.30
2012,09,26,00,46,10.30
2012,09,26,00,47,10.30
2012,09,26,00,48,10.30
2012,09,26,00,49,10.30
2012,09,26,00,50,10.30
2012,09,26,00,51,10.20
2012,09,26,00,52,10.20
2012,09,26,00,53,10.20
2012,09,26,00,54,10.20
2012,09,26,00,55,10.20
2012,09,26,00,56,10.20
2012,09,26,00,57,10.20
2012,09,26,00,58,10.10
2012,09,26,00,59,10.10
2012,09,26,01,00,10.10
2012,09,26,01,01,10.10
2012,09,26,01,02,10.10
2012,09,26,01,03,10.00
2012,09,26,01,04,10.00
2012,09,26,01,05,10.00
2012,09,26,01,06,10.00
2012,09,26,01,07,9.90
2012,09,26,01,08,9.90
2012,09,26,01,09,9.90
2012,09,26,01,10,9.90
2012,09,26,01,11,9.90
2012,09,26,01,12,9.80
2012,09,26,01,13,9.80
2012,09,26,01,14,9.80
2012,09,26,01,15,9.80
2012,09,26,01,16,9.80
2012,09,26,01,17,9.80
2012,09,26,01,18,9.80
2012,09,26,01,19,9.80
2012,09,26,01,20,9.70
2012,09,26,01,21,9.70
2012,09,26,01,22,9.70
2012,09,26,01,23,9.70
2012,09,26,01,24,9.70
2012,09,26,01,25,9.70
2012,09,26,01,26,9.70
2012,09,26,01,27,9.70
2012,09,26,01,28,9.60
2012,09,26,01,29,9.60
2012,09,26,01,30,9.60
2012,09,26,01,31,9.60
2012,09,26,01,32,9.60
2012,09,26,01,33,9.60
2012,09,26,01,34,9.60
2012,09,26,01,35,9.60
2012,09,26,01,36,9.50
2012,09,26,01,37,9.50
2012,09,26,01,38,9.50
2012,09,26,01,39,9.50
2012,09,26,01,40,9.50
2012,09,26,01,41,9.40
2012,09,26,01,42,9.40
2012,09,26,01,43,9.40
2012,09,26,01,44,9.40
2012,09,26,01,45,9.40
2012,09,26,01,46,9.40
2012,09,26,01,47,9.40
2012,09,26,01,48,9.40
2012,09,26,01,49,9.30
2012,09,26,01,50,9.30
2012,09,26,01,51,9.30
2012,09,26,01,52,9.30
2012,09,26,01,53,9.30
2012,09,26,01,54,9.20
2012,09,26,01,55,9.20
2012,09,26,01,56,9.20
2012,09,26,01,57,9.20
2012,09,26,01,58,9.20
2012,09,26,01,59,9.20
2012,09,26,02,00,9.20
2012,09,26,02,01,9.20
2012,09,26,02,02,9.20
2012,09,26,02,03,9.20
2012,09,26,02,04,9.20
2012,09,26,02,05,9.20
2012,09,26,02,06,9.10
2012,09,26,02,07,9.10
2012,09,26,02,08,9.10
2012,09,26,02,09,9.10
2012,09,26,02,10,9.10
2012,09,26,02,11,9.10
2012,09,26,02,12,9.10
2012,09,26,02,13,9.10
2012,09,26,02,14,9.10
2012,09,26,02,15,9.10
2012,09,26,02,16,9.10
2012,09,26,02,17,9.00
2012,09,26,02,18,9.00
2012,09,26,02,19,9.00
2012,09,26,02,20,9.00
2012,09,26,02,21,8.90
2012,09,26,02,22,8.90
2012,09,26,02,23,8.90
2012,09,26,02,24,8.90
2012,09,26,02,25,8.80
2012,09,26,02,26,8.80
2012,09,26,02,27,8.80
2012,09,26,02,28,8.80
2012,09,26,02,29,8.80
2012,09,26,02,30,8.80
2012,09,26,02,31,8.80
2012,09,26,02,32,8.80
2012,09,26,02,33,8.70
2012,09,26,02,34,8.70
2012,09,26,02,35,8.70
2012,09,26,02,36,8.70
2012,09,26,02,37,8.70
2012,09,26,02,38,8.70
2012,09,26,02,39,8.70
2012,09,26,02,40,8.70
2012,09,26,02,41,8.70
2012,09,26,02,42,8.70
2012,09,26,02,43,8.70
2012,09,26,02,44,8.70
2012,09,26,02,45,8.70
2012,09,26,02,46,8.70
2012,09,26,02,47,8.70
2012,09,26,02,48,8.70
2012,09,26,02,49,8.60
2012,09,26,02,50,8.60
2012,09,26,02,51,8.60
2012,09,26,02,52,8.60
2012,09,26,02,53,8.60
2012,09,26,02,54,8.60
2012,09,26,02,55,8.60
2012,09,26,02,56,8.60
2012,09,26,02,57,8.60
2012,09,26,02,58,8.60
2012,09,26,02,59,8.60
2012,09,26,03,00,8.60
2012,09,26,03,01,8.60
2012,09,26,03,02,8.50
2012,09,26,03,03,8.50
2012,09,26,03,04,8.50
2012,09,26,03,05,8.50
2012,09,26,03,06,8.50
2012,09,26,03,07,8.50
2012,09,26,03,08,8.50
2012,09,26,03,09,8.40
2012,09,26,03,10,8.40
2012,09,26,03,11,8.40
2012,09,26,03,12,8.40
2012,09,26,03,13,8.40
2012,09,26,03,14,8.30
2012,09,26,03,15,8.30
2012,09,26,03,16,8.30
2012,09,26,03,17,8.30
2012,09,26,03,18,8.30
2012,09,26,03,19,8.30
2012,09,26,03,20,8.30
2012,09,26,03,21,8.30
2012,09,26,03,22,8.30
2012,09,26,03,23,8.30
2012,09,26,03,24,8.30
2012,09,26,03,25,8.30
2012,09,26,03,26,8.20
2012,09,26,03,27,8.20
2012,09,26,03,28,8.20
2012,09,26,03,29,8.20
2012,09,26,03,30,8.20
2012,09,26,03,31,8.20
2012,09,26,03,32,8.20
2012,09,26,03,33,8.20
2012,09,26,03,34,8.20
2012,09,26,03,35,8.20
2012,09,26,03,36,8.20
2012,09,26,03,37,8.20
2012,09,26,03,38,8.20
2012,09,26,03,39,8.20
2012,09,26,03,40,8.20
2012,09,26,03,41,8.10
2012,09,26,03,42,8.10
2012,09,26,03,43,8.10
2012,09,26,03,44,8.10
2012,09,26,03,45,8.10
2012,09,26,03,46,8.10
2012,09,26,03,47,8.10
2012,09,26,03,48,8.10
2012,09,26,03,49,8.00
2012,09,26,03,50,8.00
2012,09,26,03,51,8.00
2012,09,26,03,52,8.00
2012,09,26,03,53,8.00
2012,09,26,03,54,8.00
2012,09,26,03,55,8.00
2012,09,26,03,56,8.00
2012,09,26,03,57,7.90
2012,09,26,03,58,7.90
2012,09,26,03,59,7.90
2012,09,26,04,00,7.90
2012,09,26,04,01,7.90
2012,09,26,04,02,7.90
2012,09,26,04,03,7.90
2012,09,26,04,04,7.90
2012,09,26,04,05,8.00
2012,09,26,04,06,8.00
2012,09,26,04,07,7.90
2012,09,26,04,08,8.00
2012,09,26,04,09,8.00
2012,09,26,04,10,7.90
2012,09,26,04,11,7.90
2012,09,26,04,12,7.90
2012,09,26,04,13,7.90
2012,09,26,04,14,7.90
2012,09,26,04,15,7.90
2012,09,26,04,16,7.90
2012,09,26,04,17,7.90
2012,09,26,04,18,8.00
2012,09,26,04,19,8.00
2012,09,26,04,20,8.00
2012,09,26,04,21,8.00
2012,09,26,04,22,8.00
2012,09,26,04,23,8.00
2012,09,26,04,24,8.00
2012,09,26,04,25,8.00
2012,09,26,04,26,8.10
2012,09,26,04,27,8.10
2012,09,26,04,28,8.10
2012,09,26,04,29,8.10
2012,09,26,04,30,8.10
2012,09,26,04,31,8.10
2012,09,26,04,32,8.10
2012,09,26,04,33,8.10
2012,09,26,04,34,8.10
2012,09,26,04,35,8.10
2012,09,26,04,36,8.10
2012,09,26,04,37,8.10
2012,09,26,04,38,8.10
2012,09,26,04,39,8.10
2012,09,26,04,40,8.10
2012,09,26,04,41,8.10
2012,09,26,04,42,8.20
2012,09,26,04,43,8.20
2012,09,26,04,44,8.20
2012,09,26,04,45,8.20
2012,09,26,04,46,8.20
2012,09,26,04,47,8.20
2012,09,26,04,48,8.20
2012,09,26,04,49,8.20
2012,09,26,04,50,8.20
2012,09,26,04,51,8.20
2012,09,26,04,52,8.20
2012,09,26,04,53,8.20
2012,09,26,04,54,8.20
2012,09,26,04,55,8.20
2012,09,26,04,56,8.20
2012,09,26,04,57,8.20
2012,09,26,04,58,8.20
2012,09,26,04,59,8.20
2012,09,26,05,00,8.20
2012,09,26,05,01,8.20
2012,09,26,05,02,8.20
2012,09,26,05,03,8.20
2012,09,26,05,04,8.20
2012,09,26,05,05,8.20
2012,09,26,05,06,8.20
2012,09,26,05,07,8.10
2012,09,26,05,08,8.10
2012,09,26,05,09,8.20
2012,09,26,05,10,8.20
2012,09,26,05,11,8.20
2012,09,26,05,12,8.20
2012,09,26,05,13,8.20
2012,09,26,05,14,8.20
2012,09,26,05,15,8.20
2012,09,26,05,16,8.20
2012,09,26,05,17,8.20
2012,09,26,05,18,8.20
2012,09,26,05,19,8.20
2012,09,26,05,20,8.20
2012,09,26,05,21,8.20
2012,09,26,05,22,8.20
2012,09,26,05,23,8.20
2012,09,26,05,24,8.20
2012,09,26,05,25,8.20
2012,09,26,05,26,8.20
2012,09,26,05,27,8.20
2012,09,26,05,28,8.20
2012,09,26,05,29,8.20
2012,09,26,05,30,8.30
2012,09,26,05,31,8.30
2012,09,26,05,32,8.30
2012,09,26,05,33,8.30
2012,09,26,05,34,8.30
2012,09,26,05,35,8.30
2012,09,26,05,36,8.30
2012,09,26,05,37,8.30
2012,09,26,05,38,8.30
2012,09,26,05,39,8.30
2012,09,26,05,40,8.30
2012,09,26,05,41,8.30
2012,09,26,05,42,8.30
2012,09,26,05,43,8.30
2012,09,26,05,44,8.30
2012,09,26,05,45,8.30
2012,09,26,05,46,8.30
2012,09,26,05,47,8.30
2012,09,26,05,48,8.30
2012,09,26,05,49,8.30
2012,09,26,05,50,8.30
2012,09,26,05,51,8.30
2012,09,26,05,52,8.40
2012,09,26,05,53,8.40
2012,09,26,05,54,8.40
2012,09,26,05,55,8.40
2012,09,26,05,56,8.50
2012,09,26,05,57,8.50
2012,09,26,05,58,8.50
2012,09,26,05,59,8.60
2012,09,26,06,00,8.60
2012,09,26,06,01,8.60
2012,09,26,06,02,8.60
2012,09,26,06,03,8.60
2012,09,26,06,04,8.60
2012,09,26,06,05,8.60
2012,09,26,06,06,8.60
2012,09,26,06,07,8.70
2012,09,26,06,08,8.70
2012,09,26,06,09,8.70
2012,09,26,06,10,8.70
2012,09,26,06,11,8.70
2012,09,26,06,12,8.70
2012,09,26,06,13,8.70
2012,09,26,06,14,8.70
2012,09,26,06,15,8.70
2012,09,26,06,16,8.80
2012,09,26,06,17,8.80
2012,09,26,06,18,8.80
2012,09,26,06,19,8.80
2012,09,26,06,20,8.80
2012,09,26,06,21,8.80
2012,09,26,06,22,8.80
2012,09,26,06,23,8.90
2012,09,26,06,24,8.90
2012,09,26,06,25,8.90
2012,09,26,06,26,8.90
2012,09,26,06,27,8.90
2012,09,26,06,28,8.90
2012,09,26,06,29,8.90
2012,09,26,06,30,8.90
2012,09,26,06,31,8.90
2012,09,26,06,32,8.90
2012,09,26,06,33,8.90
2012,09,26,06,34,8.90
2012,09,26,06,35,8.90
2012,09,26,06,36,8.90
2012,09,26,06,37,8.90
2012,09,26,06,38,8.90
2012,09,26,06,39,8.90
2012,09,26,06,40,8.90
2012,09,26,06,41,8.90
2012,09,26,06,42,8.80
2012,09,26,06,43,8.80
2012,09,26,06,44,8.80
2012,09,26,06,45,8.80
2012,09,26,06,46,8.80
2012,09,26,06,47,8.80
2012,09,26,06,48,8.70
2012,09,26,06,49,8.70
2012,09,26,06,50,8.70
2012,09,26,06,51,8.70
2012,09,26,06,52,8.70
2012,09,26,06,53,8.70
2012,09,26,06,54,8.70
2012,09,26,06,55,8.70
2012,09,26,06,56,8.70
2012,09,26,06,57,8.70
2012,09,26,06,58,8.70
2012,09,26,06,59,8.70
2012,09,26,07,00,8.70
2012,09,26,07,01,8.70
2012,09,26,07,02,8.70
2012,09,26,07,03,8.70
2012,09,26,07,04,8.70
2012,09,26,07,05,8.70
2012,09,26,07,06,8.70
2012,09,26,07,07,8.70
2012,09,26,07,08,8.70
2012,09,26,07,09,8.70
2012,09,26,07,10,8.70
2012,09,26,07,11,8.70
2012,09,26,07,12,8.70
2012,09,26,07,13,8.70
2012,09,26,07,14,8.70
2012,09,26,07,15,8.70
2012,09,26,07,16,8.70
2012,09,26,07,17,8.70
2012,09,26,07,18,8.70
2012,09,26,07,19,8.70
2012,09,26,07,20,8.70
2012,09,26,07,21,8.70
2012,09,26,07,22,8.70
2012,09,26,07,23,8.70
2012,09,26,07,24,8.70
2012,09,26,07,25,8.70
2012,09,26,07,26,8.70
2012,09,26,07,27,8.70
2012,09,26,07,28,8.70
2012,09,26,07,29,8.70
2012,09,26,07,30,8.70
2012,09,26,07,31,8.80
2012,09,26,07,32,8.80
2012,09,26,07,33,8.80
2012,09,26,07,34,8.80
2012,09,26,07,35,8.80
2012,09,26,07,36,8.80
2012,09,26,07,37,8.80
2012,09,26,07,38,8.80
2012,09,26,07,39,8.80
2012,09,26,07,40,8.90
2012,09,26,07,41,8.90
2012,09,26,07,42,8.90
2012,09,26,07,43,8.90
2012,09,26,07,44,8.90
2012,09,26,07,45,8.90
2012,09,26,07,46,9.00
2012,09,26,07,47,9.00
2012,09,26,07,48,9.00
2012,09,26,07,49,9.00
2012,09,26,07,50,9.10
2012,09,26,07,51,9.10
2012,09,26,07,52,9.10
2012,09,26,07,53,9.10
2012,09,26,07,54,9.10
2012,09,26,07,55,9.20
2012,09,26,07,56,9.20
2012,09,26,07,57,9.20
2012,09,26,07,58,9.20
2012,09,26,07,59,9.20
2012,09,26,08,00,9.20
2012,09,26,08,01,9.30
2012,09,26,08,02,9.30
2012,09,26,08,03,9.30
2012,09,26,08,04,9.30
2012,09,26,08,05,9.30
2012,09,26,08,06,9.30
2012,09,26,08,07,9.40
2012,09,26,08,08,9.40
2012,09,26,08,09,9.40
2012,09,26,08,10,9.40
2012,09,26,08,11,9.40
2012,09,26,08,12,9.40
2012,09,26,08,13,9.50
2012,09,26,08,14,9.50
2012,09,26,08,15,9.50
2012,09,26,08,16,9.50
2012,09,26,08,17,9.50
2012,09,26,08,18,9.50
2012,09,26,08,19,9.60
2012,09,26,08,20,9.60
2012,09,26,08,21,9.60
2012,09,26,08,22,9.60
2012,09,26,08,23,9.60
2012,09,26,08,24,9.60
2012,09,26,08,25,9.70
2012,09,26,08,26,9.70
2012,09,26,08,27,9.70
2012,09,26,08,28,9.70
2012,09,26,08,29,9.70
2012,09,26,08,30,9.70
2012,09,26,08,31,9.70
2012,09,26,08,32,9.70
2012,09,26,08,33,9.80
2012,09,26,08,34,9.80
2012,09,26,08,35,9.80
2012,09,26,08,36,9.80
2012,09,26,08,37,9.80
2012,09,26,08,38,9.80
2012,09,26,08,39,9.80
2012,09,26,08,40,9.80
2012,09,26,08,41,9.80
2012,09,26,08,42,9.80
2012,09,26,08,43,9.80
2012,09,26,08,44,9.80
2012,09,26,08,45,9.80
2012,09,26,08,46,9.80
2012,09,26,08,47,9.90
2012,09,26,08,48,9.90
2012,09,26,08,49,9.90
2012,09,26,08,50,10.00
2012,09,26,08,51,10.00
2012,09,26,08,52,10.00
2012,09,26,08,53,10.00
2012,09,26,08,54,10.00
2012,09,26,08,55,10.00
2012,09,26,08,56,10.10
2012,09,26,08,57,10.10
2012,09,26,08,58,10.10
2012,09,26,08,59,10.10
2012,09,26,09,00,10.10
2012,09,26,09,01,10.10
2012,09,26,09,02,10.10
2012,09,26,09,03,10.10
2012,09,26,09,04,10.10
2012,09,26,09,05,10.20
2012,09,26,09,06,10.20
2012,09,26,09,07,10.20
2012,09,26,09,08,10.20
2012,09,26,09,09,10.20
2012,09,26,09,10,10.30
2012,09,26,09,11,10.30
2012,09,26,09,12,10.30
2012,09,26,09,13,10.30
2012,09,26,09,14,10.30
2012,09,26,09,15,10.40
2012,09,26,09,16,10.40
2012,09,26,09,17,10.40
2012,09,26,09,18,10.40
2012,09,26,09,19,10.50
2012,09,26,09,20,10.50
2012,09,26,09,21,10.60
2012,09,26,09,22,10.60
2012,09,26,09,23,10.60
2012,09,26,09,24,10.70
2012,09,26,09,25,10.70
2012,09,26,09,26,10.70
2012,09,26,09,27,10.80
2012,09,26,09,28,10.80
2012,09,26,09,29,10.90
2012,09,26,09,30,11.00
2012,09,26,09,31,11.10
2012,09,26,09,32,11.10
2012,09,26,09,33,11.20
2012,09,26,09,34,11.20
2012,09,26,09,35,11.30
2012,09,26,09,36,11.30
2012,09,26,09,37,11.30
2012,09,26,09,38,11.40
2012,09,26,09,39,11.50
2012,09,26,09,40,11.50
2012,09,26,09,41,11.50
2012,09,26,09,42,11.50
2012,09,26,09,43,11.50
2012,09,26,09,44,11.50
2012,09,26,09,45,11.50
2012,09,26,09,46,11.60
2012,09,26,09,47,11.60
2012,09,26,09,48,11.70
2012,09,26,09,49,11.70
2012,09,26,09,50,11.70
2012,09,26,09,51,11.80
2012,09,26,09,52,11.80
2012,09,26,09,53,11.80
2012,09,26,09,54,11.80
2012,09,26,09,55,11.80
2012,09,26,09,56,11.80
2012,09,26,09,57,11.80
2012,09,26,09,58,11.80
2012,09,26,09,59,11.80
2012,09,26,10,00,11.80
2012,09,26,10,01,11.80
2012,09,26,10,02,11.80
2012,09,26,10,03,11.80
2012,09,26,10,04,11.80
2012,09,26,10,05,11.90
2012,09,26,10,06,11.90
2012,09,26,10,07,12.00
2012,09,26,10,08,12.00
2012,09,26,10,09,12.10
2012,09,26,10,10,12.10
2012,09,26,10,11,12.10
2012,09,26,10,12,12.20
2012,09,26,10,13,12.20
2012,09,26,10,14,12.20
2012,09,26,10,15,12.20
2012,09,26,10,16,12.20
2012,09,26,10,17,12.30
2012,09,26,10,18,12.30
2012,09,26,10,19,12.30
2012,09,26,10,20,12.30
2012,09,26,10,21,12.30
2012,09,26,10,22,12.40
2012,09,26,10,23,12.40
2012,09,26,10,24,12.40
2012,09,26,10,25,12.50
2012,09,26,10,26,12.50
2012,09,26,10,27,12.60
2012,09,26,10,28,12.60
2012,09,26,10,29,12.70
2012,09,26,10,30,12.70
2012,09,26,10,31,12.80
2012,09,26,10,32,12.80
2012,09,26,10,33,12.80
2012,09,26,10,34,12.90
2012,09,26,10,35,12.90
2012,09,26,10,36,12.90
2012,09,26,10,37,12.90
2012,09,26,10,38,13.00
2012,09,26,10,39,13.00
2012,09,26,10,40,13.10
2012,09,26,10,41,13.10
2012,09,26,10,42,13.20
2012,09,26,10,43,13.20
2012,09,26,10,44,13.30
2012,09,26,10,45,13.30
2012,09,26,10,46,13.40
2012,09,26,10,47,13.40
2012,09,26,10,48,13.50
2012,09,26,10,49,13.50
2012,09,26,10,50,13.60
2012,09,26,10,51,13.60
2012,09,26,10,52,13.60
2012,09,26,10,53,13.70
2012,09,26,10,54,13.70
2012,09,26,10,55,13.70
2012,09,26,10,56,13.70
2012,09,26,10,57,13.70
2012,09,26,10,58,13.70
2012,09,26,10,59,13.70
2012,09,26,11,00,13.70
2012,09,26,11,01,13.70
2012,09,26,11,02,13.70
2012,09,26,11,03,13.80
2012,09,26,11,04,13.80
2012,09,26,11,05,13.90
2012,09,26,11,06,13.90
2012,09,26,11,07,14.00
2012,09,26,11,08,14.00
2012,09,26,11,09,14.00
2012,09,26,11,10,14.10
2012,09,26,11,11,14.10
2012,09,26,11,12,14.20
2012,09,26,11,13,14.20
2012,09,26,11,14,14.30
2012,09,26,11,15,14.30
2012,09,26,11,16,14.30
2012,09,26,11,17,14.30
2012,09,26,11,18,14.30
2012,09,26,11,19,14.30
2012,09,26,11,20,14.30
2012,09,26,11,21,14.30
2012,09,26,11,22,14.40
2012,09,26,11,23,14.40
2012,09,26,11,24,14.40
2012,09,26,11,25,14.40
2012,09,26,11,26,14.40
2012,09,26,11,27,14.50
2012,09,26,11,28,14.50
2012,09,26,11,29,14.60
2012,09,26,11,30,14.60
2012,09,26,11,31,14.60
2012,09,26,11,32,14.60
2012,09,26,11,33,14.60
2012,09,26,11,34,14.60
2012,09,26,11,35,14.60
2012,09,26,11,36,14.70
2012,09,26,11,37,14.80
2012,09,26,11,38,14.80
2012,09,26,11,39,14.90
2012,09,26,11,40,15.00
2012,09,26,11,41,15.00
2012,09,26,11,42,15.10
2012,09,26,11,43,15.20
2012,09,26,11,44,15.20
2012,09,26,11,45,15.20
2012,09,26,11,46,15.30
2012,09,26,11,47,15.30
2012,09,26,11,48,15.30
2012,09,26,11,49,15.40
2012,09,26,11,50,15.40
2012,09,26,11,51,15.40
2012,09,26,11,52,15.40
2012,09,26,11,53,15.40
2012,09,26,11,54,15.40
2012,09,26,11,55,15.40
2012,09,26,11,56,15.50
2012,09,26,11,57,15.50
2012,09,26,11,58,15.60
2012,09,26,11,59,15.60
2012,09,26,12,00,15.60
2012,09,26,12,01,15.60
2012,09,26,12,02,15.60
2012,09,26,12,03,15.70
2012,09,26,12,04,15.70
2012,09,26,12,05,15.70
2012,09,26,12,06,15.70
2012,09,26,12,07,15.70
2012,09,26,12,08,15.60
2012,09,26,12,09,15.60
2012,09,26,12,10,15.60
2012,09,26,12,11,15.60
2012,09,26,12,12,15.60
2012,09,26,12,13,15.60
2012,09,26,12,14,15.70
2012,09,26,12,15,15.70
2012,09,26,12,16,15.80
2012,09,26,12,17,15.80
2012,09,26,12,18,15.90
2012,09,26,12,19,15.90
2012,09,26,12,20,15.90
2012,09,26,12,21,16.00
2012,09,26,12,22,16.00
2012,09,26,12,23,16.10
2012,09,26,12,24,16.10
2012,09,26,12,25,16.10
2012,09,26,12,26,16.20
2012,09,26,12,27,16.20
2012,09,26,12,28,16.20
2012,09,26,12,29,16.20
2012,09,26,12,30,16.30
2012,09,26,12,31,16.30
2012,09,26,12,32,16.40
2012,09,26,12,33,16.50
2012,09,26,12,34,16.50
2012,09,26,12,35,16.60
2012,09,26,12,36,16.70
2012,09,26,12,37,16.70
2012,09,26,12,38,16.80
2012,09,26,12,39,16.90
2012,09,26,12,40,16.90
2012,09,26,12,41,17.00
2012,09,26,12,42,17.10
2012,09,26,12,43,17.10
2012,09,26,12,44,17.00
2012,09,26,12,45,17.10
2012,09,26,12,46,17.10
2012,09,26,12,47,17.10
2012,09,26,12,48,17.10
2012,09,26,12,49,17.10
2012,09,26,12,50,17.20
2012,09,26,12,51,17.30
2012,09,26,12,52,17.30
2012,09,26,12,53,17.40
2012,09,26,12,54,17.50
2012,09,26,12,55,17.50
2012,09,26,12,56,17.60
2012,09,26,12,57,17.70
2012,09,26,12,58,17.70
2012,09,26,12,59,17.70
2012,09,26,13,00,17.80
2012,09,26,13,01,17.80
2012,09,26,13,02,17.90
2012,09,26,13,03,17.90
2012,09,26,13,04,18.00
2012,09,26,13,05,18.00
2012,09,26,13,06,18.00
2012,09,26,13,07,18.10
2012,09,26,13,08,18.10
2012,09,26,13,09,18.10
2012,09,26,13,10,18.20
2012,09,26,13,11,18.20
2012,09,26,13,12,18.20
2012,09,26,13,13,18.30
2012,09,26,13,14,18.40
2012,09,26,13,15,18.40
2012,09,26,13,16,18.50
2012,09,26,13,17,18.50
2012,09,26,13,18,18.60
2012,09,26,13,19,18.70
2012,09,26,13,20,18.80
2012,09,26,13,21,18.90
2012,09,26,13,22,18.90
2012,09,26,13,23,19.00
2012,09,26,13,24,19.10
2012,09,26,13,25,19.10
2012,09,26,13,26,19.20
2012,09,26,13,27,19.30
2012,09,26,13,28,19.40
2012,09,26,13,29,19.50
2012,09,26,13,30,19.50
2012,09,26,13,31,19.60
2012,09,26,13,32,19.60
2012,09,26,13,33,19.60
2012,09,26,13,34,19.60
2012,09,26,13,35,19.60
2012,09,26,13,36,19.70
2012,09,26,13,37,19.70
2012,09,26,13,38,19.70
2012,09,26,13,39,19.70
2012,09,26,13,40,19.80
2012,09,26,13,41,19.80
2012,09,26,13,42,19.80
2012,09,26,13,43,19.80
2012,09,26,13,44,19.80
2012,09,26,13,45,19.90
2012,09,26,13,46,19.90
2012,09,26,13,47,19.90
2012,09,26,13,48,19.90
2012,09,26,13,49,20.00
2012,09,26,13,50,20.00
2012,09,26,13,51,20.00
2012,09,26,13,52,19.90
2012,09,26,13,53,19.90
2012,09,26,13,54,20.00
2012,09,26,13,55,20.00
2012,09,26,13,56,20.10
2012,09,26,13,57,20.20
2012,09,26,13,58,20.20
2012,09,26,13,59,20.30
2012,09,26,14,00,20.20
2012,09,26,14,01,20.20
2012,09,26,14,02,20.20
2012,09,26,14,03,20.20
2012,09,26,14,04,20.20
2012,09,26,14,05,20.20
2012,09,26,14,06,20.30
2012,09,26,14,07,20.30
2012,09,26,14,08,20.30
2012,09,26,14,09,20.30
2012,09,26,14,10,20.30
2012,09,26,14,11,20.30
2012,09,26,14,12,20.30
2012,09,26,14,13,20.30
2012,09,26,14,14,20.40
2012,09,26,14,15,20.30
2012,09,26,14,16,20.30
2012,09,26,14,17,20.30
2012,09,26,14,18,20.30
2012,09,26,14,19,20.30
2012,09,26,14,20,20.30
2012,09,26,14,21,20.30
2012,09,26,14,22,20.30
2012,09,26,14,23,20.20
2012,09,26,14,24,20.20
2012,09,26,14,25,20.10
2012,09,26,14,26,20.10
2012,09,26,14,27,20.10
2012,09,26,14,28,20.20
2012,09,26,14,29,20.20
2012,09,26,14,30,20.20
2012,09,26,14,31,20.20
2012,09,26,14,32,20.20
2012,09,26,14,33,20.20
2012,09,26,14,34,20.10
2012,09,26,14,35,20.00
2012,09,26,14,36,19.90
2012,09,26,14,37,19.90
2012,09,26,14,38,19.80
2012,09,26,14,39,19.80
2012,09,26,14,40,19.80
2012,09,26,14,41,19.80
2012,09,26,14,42,19.90
2012,09,26,14,43,20.00
2012,09,26,14,44,20.10
2012,09,26,14,45,20.10
2012,09,26,14,46,20.20
2012,09,26,14,47,20.30
2012,09,26,14,48,20.40
2012,09,26,14,49,20.40
2012,09,26,14,50,20.50
2012,09,26,14,51,20.50
2012,09,26,14,52,20.50
2012,09,26,14,53,20.50
2012,09,26,14,54,20.60
2012,09,26,14,55,20.60
2012,09,26,14,56,20.60
2012,09,26,14,57,20.70
2012,09,26,14,58,20.70
2012,09,26,14,59,20.60
2012,09,26,15,00,20.60
2012,09,26,15,01,20.70
2012,09,26,15,02,20.70
2012,09,26,15,03,20.80
2012,09,26,15,04,20.90
2012,09,26,15,05,20.90
2012,09,26,15,06,21.00
2012,09,26,15,07,21.00
2012,09,26,15,08,21.10
2012,09,26,15,09,21.10
2012,09,26,15,10,21.10
2012,09,26,15,11,21.10
2012,09,26,15,12,21.10
2012,09,26,15,13,21.10
2012,09,26,15,14,21.10
2012,09,26,15,15,21.10
2012,09,26,15,16,21.20
2012,09,26,15,17,21.20
2012,09,26,15,18,21.30
2012,09,26,15,19,21.30
2012,09,26,15,20,21.40
2012,09,26,15,21,21.40
2012,09,26,15,22,21.40
2012,09,26,15,23,21.40
2012,09,26,15,24,21.40
2012,09,26,15,25,21.50
2012,09,26,15,26,21.50
2012,09,26,15,27,21.50
2012,09,26,15,28,21.60
2012,09,26,15,29,21.60
2012,09,26,15,30,21.50
2012,09,26,15,31,21.40
2012,09,26,15,32,21.40
2012,09,26,15,33,21.40
2012,09,26,15,34,21.40
2012,09,26,15,35,21.40
2012,09,26,15,36,21.40
2012,09,26,15,37,21.50
2012,09,26,15,38,21.50
2012,09,26,15,39,21.60
2012,09,26,15,40,21.70
2012,09,26,15,41,21.70
2012,09,26,15,42,21.70
2012,09,26,15,43,21.80
2012,09,26,15,44,21.80
2012,09,26,15,45,21.90
2012,09,26,15,46,22.00
2012,09,26,15,47,22.10
2012,09,26,15,48,22.10
2012,09,26,15,49,22.10
2012,09,26,15,50,22.20
2012,09,26,15,51,22.20
2012,09,26,15,52,22.20
2012,09,26,15,53,22.30
2012,09,26,15,54,22.30
2012,09,26,15,55,22.40
2012,09,26,15,56,22.40
2012,09,26,15,57,22.40
2012,09,26,15,58,22.40
2012,09,26,15,59,22.40
2012,09,26,16,00,22.30
2012,09,26,16,01,22.30
2012,09,26,16,02,22.30
2012,09,26,16,03,22.40
2012,09,26,16,04,22.40
2012,09,26,16,05,22.40
2012,09,26,16,06,22.30
2012,09,26,16,07,22.30
2012,09,26,16,08,22.30
2012,09,26,16,09,22.30
2012,09,26,16,10,22.20
2012,09,26,16,11,22.20
2012,09,26,16,12,22.20
2012,09,26,16,13,22.20
2012,09,26,16,14,22.20
2012,09,26,16,15,22.20
2012,09,26,16,16,22.20
2012,09,26,16,17,22.20
2012,09,26,16,18,22.30
2012,09,26,16,19,22.30
2012,09,26,16,20,22.30
2012,09,26,16,21,22.30
2012,09,26,16,22,22.30
2012,09,26,16,23,22.30
2012,09,26,16,24,22.30
2012,09,26,16,25,22.30
2012,09,26,16,26,22.30
2012,09,26,16,27,22.30
2012,09,26,16,28,22.40
2012,09,26,16,29,22.40
2012,09,26,16,30,22.50
2012,09,26,16,31,22.50
2012,09,26,16,32,22.60
2012,09,26,16,33,22.60
2012,09,26,16,34,22.70
2012,09,26,16,35,22.70
2012,09,26,16,36,22.70
2012,09,26,16,37,22.70
2012,09,26,16,38,22.70
2012,09,26,16,39,22.70
2012,09,26,16,40,22.70
2012,09,26,16,41,22.60
2012,09,26,16,42,22.50
2012,09,26,16,43,22.50
2012,09,26,16,44,22.60
2012,09,26,16,45,22.60
2012,09,26,16,46,22.70
2012,09,26,16,47,22.70
2012,09,26,16,48,22.80
2012,09,26,16,49,22.80
2012,09,26,16,50,22.80
2012,09,26,16,51,22.80
2012,09,26,16,52,22.70
2012,09,26,16,53,22.70
2012,09,26,16,54,22.60
2012,09,26,16,55,22.60
2012,09,26,16,56,22.50
2012,09,26,16,57,22.40
2012,09,26,16,58,22.40
2012,09,26,16,59,22.30
2012,09,26,17,00,22.20
2012,09,26,17,01,22.20
2012,09,26,17,02,22.20
2012,09,26,17,03,22.10
2012,09,26,17,04,22.10
2012,09,26,17,05,22.10
2012,09,26,17,06,22.10
2012,09,26,17,07,22.10
2012,09,26,17,08,22.20
2012,09,26,17,09,22.20
2012,09,26,17,10,22.30
2012,09,26,17,11,22.30
2012,09,26,17,12,22.30
2012,09,26,17,13,22.30
2012,09,26,17,14,22.30
2012,09,26,17,15,22.30
2012,09,26,17,16,22.30
2012,09,26,17,17,22.20
2012,09,26,17,18,22.20
2012,09,26,17,19,22.20
2012,09,26,17,20,22.10
2012,09,26,17,21,22.00
2012,09,26,17,22,22.00
2012,09,26,17,23,21.90
2012,09,26,17,24,21.90
2012,09,26,17,25,21.90
2012,09,26,17,26,21.80
2012,09,26,17,27,21.80
2012,09,26,17,28,21.90
2012,09,26,17,29,21.90
2012,09,26,17,30,21.90
2012,09,26,17,31,21.90
2012,09,26,17,32,21.90
2012,09,26,17,33,22.00
2012,09,26,17,34,22.00
2012,09,26,17,35,22.00
2012,09,26,17,36,22.00
2012,09,26,17,37,22.00
2012,09,26,17,38,22.00
2012,09,26,17,39,22.10